This demonstration page uses our WeatherBlox Daily Observations layout. Learn more.

38.89511, -77.03637

Hourly Observations for October 22, 2018

Temp ( °F °C ) Dew Point ( °F °C ) Humidity (%) Winds ( mph kmh ) Pressure ( in mb ) Visibility ( mi km ) Precip ( " mm )
12:52 am 00:52 Clear 43 6.1 29 -1.7 58 58 WNW 8 13 30.29 1026 10 16.0934 0 0
1:52 am 01:52 Clear 43 6.1 29 -1.7 58 58 NNW 9 15 30.29 1026 10 16.0934 0 0
2:52 am 02:52 Clear 42 5.6 29 -1.7 60 60 Calm 30.3 1026 10 16.0934 0 0
3:52 am 03:52 Clear 41 5 31 -0.6 67 67 WSW 3 6 30.3 1026 10 16.0934 0 0
4:52 am 04:52 Clear 39 3.9 31 -0.6 73 73 WSW 5 7 30.3 1026 10 16.0934 0 0
5:52 am 05:52 Clear 39 3.9 31 -0.6 73 73 WSW 7 11 30.32 1027 10 16.0934 0 0
6:52 am 06:52 Mostly Clear 39 3.9 31 -0.6 73 73 SSW 3 6 30.32 1027 10 16.0934 0 0
7:52 am 07:52 Mostly Sunny 39 3.9 32 0 76 76 Calm 30.33 1027 10 16.0934 0 0
8:52 am 08:52 Mostly Sunny 42 5.6 33 0.6 71 71 S 3 6 30.34 1027 10 16.0934 0 0
9:52 am 09:52 Mostly Sunny 47 8.3 33 0.6 59 59 SW 6 9 30.35 1028 10 16.0934 0 0
10:52 am 10:52 Mostly Sunny 50 10 32 0 50 50 SW 12 19 30.34 1027 10 16.0934 0 0
11:52 am 11:52 Mostly Sunny 53 11.7 35 1.7 51 51 S 10 17 30.32 1027 10 16.0934 0 0
12:52 pm 12:52 Mostly Sunny 54 12.2 33 0.6 45 45 SW 14 22 30.29 1026 10 16.0934 0 0
1:52 pm 13:52 Partly Cloudy 55 12.8 34 1.1 45 45 SSW 15 24 30.25 1025 10 16.0934 0 0
2:52 pm 14:52 Mostly Cloudy 56 13.3 34 1.1 44 44 SSW 16 26 30.22 1023 10 16.0934 0 0
3:52 pm 15:52 Mostly Cloudy 57 13.9 35 1.7 44 44 SSW 13 20 30.2 1023 10 16.0934 0 0
4:52 pm 16:52 Partly Cloudy 57 13.9 34 1.1 42 42 SSW 15 24 30.18 1022 10 16.0934 0 0
5:52 pm 17:52 Partly Cloudy 56 13.3 35 1.7 46 46 S 10 17 30.18 1022 10 16.0934 0 0
6:52 pm 18:52 Mostly Cloudy 54 12.2 37 2.8 53 53 S 9 15 30.17 1022 10 16.0934 0 0
7:52 pm 19:52 Mostly Cloudy 53 11.7 38 3.3 57 57 SSW 8 13 30.18 1022 10 16.0934 0 0
8:52 pm 20:52 Partly Cloudy 53 11.7 39 3.9 59 59 S 10 17 30.17 1022 10 16.0934 0 0
9:52 pm 21:52 Partly Cloudy 52 11.1 40 4.4 64 64 S 9 15 30.17 1022 10 16.0934 0 0
10:52 pm 22:52 Partly Cloudy 52 11.1 41 5 66 66 S 9 15 30.16 1021 10 16.0934 0 0
11:52 pm 23:52 Cloudy 51 10.6 42 5.6 71 71 S 7 11 30.16 1021 10 16.0934 0 0

Powered by AerisWeather